Weather History for West Palm Beach, FL

Change the Weather History Date:

Friday, March 8, 2013

  Actual Average Record
Temperature  
Mean Temperature 62 °F 70 °F  
Max Temperature 75 °F 78 °F 90 °F (1961)
Min Temperature 49 °F 61 °F 40 °F (1914)
Degree Days  
Heating Degree Days 3 1  
Month to date heating degree days 47 8  
Since 1 July heating degree days 130 213  
Cooling Degree Days 0 6  
Month to date cooling degree days 0 46  
Year to date cooling degree days 381 281  
Growing Degree Days 12 (Base 50)    
Moisture  
Dew Point 47 °F    
Average Humidity 62    
Maximum Humidity 93    
Minimum Humidity 31    
Precipitation  
Precipitation 0.00 in 0.15 in 3.38 in (1970)
Month to date precipitation T 1.06  
Year to date precipitation 3.19 7.01  
Snow  
Snow 0.00 in - - ()
Month to date snowfall 0.0  
Since 1 July snowfall 0.0  
Snow Depth 0.00 in    
Sea Level Pressure  
Sea Level Pressure 30.16 in    
Wind  
Wind Speed 7 mph (NNW)    
Max Wind Speed 15 mph    
Max Gust Speed 26 mph    
Visibility 10 miles    
Events      
T = Trace of Precipitation, MM = Missing Value Source: NWS Daily Summary

Daily Weather History Graph

Daily Weather History Graph

Search for Another Location

Airport:

Trip Planner

Search our weather history database for the weather conditions in past years. The results will help you decide how hot, cold, wet, or windy it might be!

Date:

Astronomy

Mar. 08, 2013 Rise Set
Actual Time 6:36 AM EST 6:25 PM EST
Civil Twilight 6:13 AM EST 6:48 PM EST
Nautical Twilight 5:46 AM EST 7:15 PM EST
Astronomical Twilight 5:20 AM EST 7:42 PM EST
Moon 4:04 AM EST (3/8) 3:32 PM EST (3/8)
Length of Visible Light 12h 35m
Length of Day
11h 48m
Waning Crescent, 12% of the Moon is Illuminated
Mar 8
Waning Crescent
Mar 11
New
Mar 19
First Quarter
Mar 27
Full
Apr 3
Last Quarter

Hourly Weather History & Observations

Time (EST) Temp. Dew Point Humidity Pressure Visibility Wind Dir Wind Speed Gust Speed Precip Events Conditions
12:53 AM 52.0 °F 48.9 °F 89% 30.17 in 10.0 mi NNW 5.8 mph - N/A   Clear
1:53 AM 53.1 °F 48.9 °F 86% 30.16 in 10.0 mi NNW 3.5 mph - N/A   Clear
2:53 AM 52.0 °F 48.0 °F 86% 30.14 in 10.0 mi NNW 4.6 mph - N/A   Clear
3:53 AM 51.1 °F 46.9 °F 86% 30.14 in 10.0 mi NNW 5.8 mph - N/A   Partly Cloudy
4:53 AM 48.9 °F 46.0 °F 90% 30.14 in 10.0 mi NNW 5.8 mph - N/A   Partly Cloudy
5:53 AM 51.1 °F 46.9 °F 86% 30.15 in 10.0 mi NW 5.8 mph - N/A   Clear
6:53 AM 51.1 °F 46.9 °F 86% 30.17 in 10.0 mi NNW 5.8 mph - N/A   Partly Cloudy
7:53 AM 55.9 °F 50.0 °F 80% 30.18 in 10.0 mi NW 8.1 mph - N/A   Partly Cloudy
8:53 AM 63.0 °F 48.9 °F 60% 30.20 in 10.0 mi NNW 10.4 mph - N/A   Partly Cloudy
9:53 AM 66.9 °F 46.9 °F 49% 30.21 in 10.0 mi NNW 8.1 mph - N/A   Partly Cloudy
10:53 AM 69.8 °F 42.8 °F 38% 30.20 in 10.0 mi NW 6.9 mph - N/A   Scattered Clouds
11:53 AM 71.6 °F 41.0 °F 33% 30.19 in 10.0 mi NW 6.9 mph - N/A   Partly Cloudy
12:53 PM 73.0 °F 41.0 °F 31% 30.15 in 10.0 mi WNW 10.4 mph - N/A   Partly Cloudy
1:53 PM 72.0 °F 48.0 °F 43% 30.13 in 10.0 mi NE 10.4 mph - N/A   Clear
2:53 PM 72.0 °F 48.0 °F 43% 30.12 in 10.0 mi ENE 11.5 mph - N/A   Clear
3:53 PM 72.0 °F 46.9 °F 41% 30.11 in 10.0 mi NNE 11.5 mph - N/A   Clear
4:53 PM 70.0 °F 46.9 °F 44% 30.12 in 10.0 mi NE 12.7 mph - N/A   Clear
5:53 PM 68.0 °F 48.0 °F 49% 30.13 in 10.0 mi North 11.5 mph - N/A   Clear
6:53 PM 66.0 °F 51.1 °F 59% 30.14 in 10.0 mi North 5.8 mph - N/A   Partly Cloudy
7:53 PM 64.9 °F 48.9 °F 56% 30.16 in 10.0 mi North 6.9 mph - N/A   Clear
8:53 PM 59.0 °F 48.0 °F 67% 30.17 in 10.0 mi WNW 3.5 mph - N/A   Clear
9:53 PM 57.0 °F 48.9 °F 74% 30.18 in 10.0 mi NW 5.8 mph - N/A   Clear
10:53 PM 57.0 °F 48.0 °F 72% 30.17 in 10.0 mi NNW 6.9 mph - N/A   Clear
11:53 PM 57.0 °F 48.0 °F 72% 30.16 in 10.0 mi Calm Calm - N/A   Clear